User: anonymous   Login
Location: Carbonear
(47.7333°N, 53.2500°W)
Time: 12:26:35
(UTC+00:00)
Language:

VELOX 1 - Orbit

View from above orbital plane
View from above orbital plane
View from above satellite
View from above satellite

Ground track
Ground track

The orbit data is extracted from the following two-line orbital elements,

1 40057U 14034E   22342.19343663  .00002421  00000-0  32786-3 0  9994
2 40057  98.3697 161.8670 0011333 130.7485 229.4719 14.79920286455161
Epoch (UTC): 08 December 2022 04:38:32
Eccentricity: 0.0011333
inclination: 98.3697°
perigee height: 621 km
apogee height: 637 km
right ascension of ascending node: 161.8670°
argument of perigee: 130.7485°
revolutions per day: 14.79920286
mean anomaly at epoch: 229.4719°
orbit number at epoch: 45516

The dashed part of the orbit path shows where the satellite is in the earth's shadow,  

DLR